Time,TemperatureF,DewpointF,PressureIn,WindDirection,WindDirectionDegrees,WindSpeedMPH,WindSpeedGustMPH,Humidity,HourlyPrecipIn,Conditions,Clouds,dailyrainin,SoftwareType,DateUTC
2013-08-24 00:00:00,60.7,57.4,30.12,SW,236,0.0,0.0,89,0.00,,---,0.00,VWS V14.01,2013-08-24 04:00:00,
2013-08-24 00:01:00,60.7,57.4,30.12,SW,236,0.0,0.0,89,0.00,,---,0.00,VWS V14.01,2013-08-24 04:01:00,
2013-08-24 00:06:00,60.7,57.4,30.12,SW,236,0.0,0.0,89,0.00,,---,0.00,VWS V14.01,2013-08-24 04:06:00,
2013-08-24 00:11:00,60.7,57.4,30.13,WSW,237,0.0,0.0,89,0.00,,---,0.00,VWS V14.01,2013-08-24 04:11:00,
2013-08-24 00:16:00,60.7,57.4,30.13,SW,236,0.0,0.0,89,0.00,,---,0.00,VWS V14.01,2013-08-24 04:16:00,
2013-08-24 00:21:00,60.6,57.3,30.13,SW,236,0.0,0.0,89,0.00,,---,0.00,VWS V14.01,2013-08-24 04:21:00,
2013-08-24 00:26:00,60.5,57.2,30.13,SW,236,0.0,0.0,89,0.00,,---,0.00,VWS V14.01,2013-08-24 04:26:00,
2013-08-24 00:30:00,60.3,56.7,30.13,SW,236,0.0,0.0,88,0.00,,---,0.00,VWS V14.01,2013-08-24 04:30:00,
2013-08-24 00:31:00,60.3,56.7,30.13,SW,236,0.0,0.0,88,0.00,,---,0.00,VWS V14.01,2013-08-24 04:31:00,
2013-08-24 00:36:00,60.2,56.6,30.13,SW,236,0.0,0.0,88,0.00,,---,0.00,VWS V14.01,2013-08-24 04:36:00,
2013-08-24 00:41:00,60.1,56.5,30.14,SW,236,0.0,0.0,88,0.00,,---,0.00,VWS V14.01,2013-08-24 04:41:00,
2013-08-24 00:46:00,60.1,56.5,30.14,SW,236,0.0,0.0,88,0.00,,---,0.00,VWS V14.01,2013-08-24 04:46:00,
2013-08-24 00:51:00,60.0,56.4,30.14,SW,236,0.0,0.0,88,0.00,,---,0.00,VWS V14.01,2013-08-24 04:51:00,
2013-08-24 00:56:00,60.0,56.4,30.14,SW,236,0.0,0.0,88,0.00,,---,0.00,VWS V14.01,2013-08-24 04:56:00,
2013-08-24 01:00:00,60.0,56.4,30.15,SW,236,0.0,0.0,88,0.00,,---,0.00,VWS V14.01,2013-08-24 05:00:00,
2013-08-24 01:01:00,60.0,56.4,30.15,SW,236,0.0,0.0,88,0.00,,---,0.00,VWS V14.01,2013-08-24 05:01:00,
2013-08-24 01:06:00,60.0,56.8,30.15,SW,236,0.0,0.0,89,0.00,,---,0.00,VWS V14.01,2013-08-24 05:06:00,
2013-08-24 01:11:00,60.1,57.2,30.15,WSW,243,0.0,0.0,90,0.00,,---,0.00,VWS V14.01,2013-08-24 05:11:00,
2013-08-24 01:16:00,60.1,57.2,30.15,WSW,243,0.0,0.0,90,0.00,,---,0.00,VWS V14.01,2013-08-24 05:16:00,
2013-08-24 01:21:00,60.0,57.4,30.15,West,263,0.0,0.0,91,0.00,,---,0.00,VWS V14.01,2013-08-24 05:21:00,
2013-08-24 01:26:00,59.9,57.3,30.15,West,263,0.0,1.0,91,0.00,,---,0.00,VWS V14.01,2013-08-24 05:26:00,
2013-08-24 01:30:00,59.8,57.2,30.15,West,263,0.0,1.0,91,0.00,,---,0.00,VWS V14.01,2013-08-24 05:30:00,
2013-08-24 01:31:00,59.8,57.2,30.15,West,263,0.0,0.0,91,0.00,,---,0.00,VWS V14.01,2013-08-24 05:31:00,
2013-08-24 01:36:00,59.7,57.1,30.16,West,263,0.0,0.0,91,0.00,,---,0.00,VWS V14.01,2013-08-24 05:36:00,
2013-08-24 01:41:00,59.6,57.0,30.16,West,263,0.0,0.0,91,0.00,,---,0.00,VWS V14.01,2013-08-24 05:41:00,
2013-08-24 01:46:00,59.5,56.9,30.16,West,263,0.0,0.0,91,0.00,,---,0.00,VWS V14.01,2013-08-24 05:46:00,
2013-08-24 01:51:00,59.4,56.5,30.16,West,263,0.0,0.0,90,0.00,,---,0.00,VWS V14.01,2013-08-24 05:51:00,
2013-08-24 01:56:00,59.2,56.3,30.16,West,263,0.0,0.0,90,0.00,,---,0.00,VWS V14.01,2013-08-24 05:56:00,
2013-08-24 02:00:00,59.1,56.2,30.16,West,263,0.0,0.0,90,0.00,,---,0.00,VWS V14.01,2013-08-24 06:00:00,
2013-08-24 02:01:00,59.1,56.2,30.16,West,263,0.0,0.0,90,0.00,,---,0.00,VWS V14.01,2013-08-24 06:01:00,
2013-08-24 02:06:00,59.1,56.2,30.17,West,263,0.0,0.0,90,0.00,,---,0.00,VWS V14.01,2013-08-24 06:06:00,
2013-08-24 02:11:00,59.0,55.8,30.17,West,263,0.0,0.0,89,0.00,,---,0.00,VWS V14.01,2013-08-24 06:11:00,
2013-08-24 02:16:00,58.8,55.6,30.17,West,263,0.0,0.0,89,0.00,,---,0.00,VWS V14.01,2013-08-24 06:16:00,
2013-08-24 02:21:00,58.7,55.5,30.17,West,262,0.0,0.0,89,0.00,,---,0.00,VWS V14.01,2013-08-24 06:21:00,
2013-08-24 02:26:00,58.5,55.6,30.17,West,263,0.0,0.0,90,0.00,,---,0.00,VWS V14.01,2013-08-24 06:26:00,
2013-08-24 02:30:00,58.4,55.5,30.17,West,263,0.0,0.0,90,0.00,,---,0.00,VWS V14.01,2013-08-24 06:30:00,
2013-08-24 02:31:00,58.4,55.5,30.17,West,263,0.0,0.0,90,0.00,,---,0.00,VWS V14.01,2013-08-24 06:31:00,
2013-08-24 02:36:00,58.2,55.3,30.17,West,263,0.0,0.0,90,0.00,,---,0.00,VWS V14.01,2013-08-24 06:36:00,
2013-08-24 02:41:00,57.9,55.0,30.18,West,263,0.0,0.0,90,0.00,,---,0.00,VWS V14.01,2013-08-24 06:41:00,
2013-08-24 02:46:00,57.6,54.7,30.18,West,263,0.0,0.0,90,0.00,,---,0.00,VWS V14.01,2013-08-24 06:46:00,
2013-08-24 02:51:00,57.6,55.0,30.18,West,263,0.0,0.0,91,0.00,,---,0.00,VWS V14.01,2013-08-24 06:51:00,
2013-08-24 02:56:00,57.5,54.9,30.19,West,263,0.0,0.0,91,0.00,,---,0.00,VWS V14.01,2013-08-24 06:56:00,
2013-08-24 03:00:00,57.3,54.7,30.19,West,263,0.0,0.0,91,0.00,,---,0.00,VWS V14.01,2013-08-24 07:00:00,
2013-08-24 03:01:00,57.3,54.7,30.19,West,263,0.0,0.0,91,0.00,,---,0.00,VWS V14.01,2013-08-24 07:01:00,
2013-08-24 03:06:00,57.2,54.6,30.19,West,263,0.0,0.0,91,0.00,,---,0.00,VWS V14.01,2013-08-24 07:06:00,
2013-08-24 03:11:00,57.0,54.7,30.19,West,263,0.0,0.0,92,0.00,,---,0.00,VWS V14.01,2013-08-24 07:11:00,
2013-08-24 03:16:00,56.9,54.6,30.19,West,263,0.0,0.0,92,0.00,,---,0.00,VWS V14.01,2013-08-24 07:16:00,
2013-08-24 03:21:00,56.7,54.4,30.20,West,263,0.0,0.0,92,0.00,,---,0.00,VWS V14.01,2013-08-24 07:21:00,
2013-08-24 03:26:00,56.6,54.3,30.20,West,263,0.0,0.0,92,0.00,,---,0.00,VWS V14.01,2013-08-24 07:26:00,
2013-08-24 03:30:00,56.5,54.5,30.20,West,264,0.0,0.0,93,0.00,,---,0.00,VWS V14.01,2013-08-24 07:30:00,
2013-08-24 03:31:00,56.5,54.5,30.20,West,263,0.0,0.0,93,0.00,,---,0.00,VWS V14.01,2013-08-24 07:31:00,
2013-08-24 03:36:00,56.5,54.5,30.20,West,263,0.0,0.0,93,0.00,,---,0.00,VWS V14.01,2013-08-24 07:36:00,
2013-08-24 03:41:00,56.4,54.4,30.20,West,263,0.0,0.0,93,0.00,,---,0.00,VWS V14.01,2013-08-24 07:41:00,
2013-08-24 03:46:00,56.4,54.7,30.20,West,263,0.0,0.0,94,0.00,,---,0.00,VWS V14.01,2013-08-24 07:46:00,
2013-08-24 03:51:00,56.4,54.7,30.21,West,263,0.0,0.0,94,0.00,,---,0.00,VWS V14.01,2013-08-24 07:51:00,
2013-08-24 03:56:00,56.2,54.5,30.20,West,263,0.0,0.0,94,0.00,,---,0.00,VWS V14.01,2013-08-24 07:56:00,
2013-08-24 04:00:00,56.1,54.4,30.21,West,263,0.0,0.0,94,0.00,,---,0.00,VWS V14.01,2013-08-24 08:00:00,
2013-08-24 04:01:00,56.1,54.4,30.21,West,263,0.0,0.0,94,0.00,,---,0.00,VWS V14.01,2013-08-24 08:01:00,
2013-08-24 04:06:00,56.0,54.3,30.21,West,263,0.0,0.0,94,0.00,,---,0.00,VWS V14.01,2013-08-24 08:06:00,
2013-08-24 04:11:00,56.0,54.6,30.21,West,263,0.0,0.0,95,0.00,,---,0.00,VWS V14.01,2013-08-24 08:11:00,
2013-08-24 04:16:00,56.0,54.6,30.21,West,263,0.0,0.0,95,0.00,,---,0.00,VWS V14.01,2013-08-24 08:16:00,
2013-08-24 04:21:00,55.9,54.5,30.21,West,263,0.0,0.0,95,0.00,,---,0.00,VWS V14.01,2013-08-24 08:21:00,
2013-08-24 04:26:00,55.8,54.4,30.21,West,263,0.0,0.0,95,0.00,,---,0.00,VWS V14.01,2013-08-24 08:26:00,
2013-08-24 04:30:00,55.8,54.4,30.21,West,263,0.0,0.0,95,0.00,,---,0.00,VWS V14.01,2013-08-24 08:30:00,
2013-08-24 04:31:00,55.8,54.4,30.21,West,263,0.0,0.0,95,0.00,,---,0.00,VWS V14.01,2013-08-24 08:31:00,
2013-08-24 04:36:00,55.7,54.3,30.21,West,263,0.0,0.0,95,0.00,,---,0.00,VWS V14.01,2013-08-24 08:36:00,
2013-08-24 04:41:00,55.5,54.1,30.21,West,263,0.0,0.0,95,0.00,,---,0.00,VWS V14.01,2013-08-24 08:41:00,
2013-08-24 04:46:00,55.5,54.1,30.22,West,263,0.0,0.0,95,0.00,,---,0.00,VWS V14.01,2013-08-24 08:46:00,
2013-08-24 04:51:00,55.4,54.0,30.22,West,263,0.0,0.0,95,0.00,,---,0.00,VWS V14.01,2013-08-24 08:51:00,
2013-08-24 04:56:00,55.2,53.8,30.22,West,263,0.0,0.0,95,0.00,,---,0.00,VWS V14.01,2013-08-24 08:56:00,
2013-08-24 05:00:00,55.1,53.7,30.21,West,263,0.0,0.0,95,0.00,,---,0.00,VWS V14.01,2013-08-24 09:00:00,
2013-08-24 05:01:00,55.1,53.7,30.21,West,263,0.0,0.0,95,0.00,,---,0.00,VWS V14.01,2013-08-24 09:01:00,
2013-08-24 05:06:00,55.0,53.6,30.22,West,263,0.0,0.0,95,0.00,,---,0.00,VWS V14.01,2013-08-24 09:06:00,
2013-08-24 05:11:00,54.9,53.5,30.22,West,263,0.0,0.0,95,0.00,,---,0.00,VWS V14.01,2013-08-24 09:11:00,
2013-08-24 05:16:00,54.9,53.8,30.22,West,263,0.0,0.0,96,0.00,,---,0.00,VWS V14.01,2013-08-24 09:16:00,
2013-08-24 05:21:00,54.9,53.8,30.22,SW,215,0.0,0.0,96,0.00,,---,0.00,VWS V14.01,2013-08-24 09:21:00,
2013-08-24 05:26:00,54.8,53.7,30.22,SW,216,0.0,0.0,96,0.00,,---,0.00,VWS V14.01,2013-08-24 09:26:00,
2013-08-24 05:30:00,54.8,53.7,30.22,SW,217,0.0,0.0,96,0.00,,---,0.00,VWS V14.01,2013-08-24 09:30:00,
2013-08-24 05:31:00,54.8,53.7,30.22,SW,217,0.0,0.0,96,0.00,,---,0.00,VWS V14.01,2013-08-24 09:31:00,
2013-08-24 05:36:00,54.8,53.7,30.23,SW,217,0.0,0.0,96,0.00,,---,0.00,VWS V14.01,2013-08-24 09:36:00,
2013-08-24 05:41:00,54.7,53.6,30.23,SW,215,0.0,0.0,96,0.00,,---,0.00,VWS V14.01,2013-08-24 09:41:00,
2013-08-24 05:46:00,54.5,53.4,30.23,SW,215,0.0,0.0,96,0.00,,---,0.00,VWS V14.01,2013-08-24 09:46:00,
2013-08-24 05:51:00,54.4,53.3,30.23,SW,215,0.0,0.0,96,0.00,,---,0.00,VWS V14.01,2013-08-24 09:51:00,
2013-08-24 05:56:00,54.4,53.3,30.24,SW,215,0.0,0.0,96,0.00,,---,0.00,VWS V14.01,2013-08-24 09:56:00,
2013-08-24 06:00:00,54.2,53.1,30.24,SW,215,0.0,0.0,96,0.00,,---,0.00,VWS V14.01,2013-08-24 10:00:00,
2013-08-24 06:01:00,54.2,53.1,30.24,SW,215,0.0,0.0,96,0.00,,---,0.00,VWS V14.01,2013-08-24 10:01:00,
2013-08-24 06:06:00,54.2,53.1,30.24,SE,143,0.0,0.0,96,0.00,,---,0.00,VWS V14.01,2013-08-24 10:06:00,
2013-08-24 06:11:00,54.2,53.1,30.24,SSE,156,0.0,0.0,96,0.00,,---,0.00,VWS V14.01,2013-08-24 10:11:00,
2013-08-24 06:16:00,54.2,53.4,30.25,SW,236,0.0,0.0,97,0.00,,---,0.00,VWS V14.01,2013-08-24 10:16:00,
2013-08-24 06:21:00,54.3,53.2,30.25,SW,236,0.0,0.0,96,0.00,,---,0.00,VWS V14.01,2013-08-24 10:21:00,
2013-08-24 06:26:00,54.2,53.1,30.25,SW,236,0.0,0.0,96,0.00,,---,0.00,VWS V14.01,2013-08-24 10:26:00,
2013-08-24 06:30:00,54.1,53.0,30.25,SW,236,0.0,0.0,96,0.00,,---,0.00,VWS V14.01,2013-08-24 10:30:00,
2013-08-24 06:31:00,54.1,53.0,30.25,SW,236,0.0,0.0,96,0.00,,---,0.00,VWS V14.01,2013-08-24 10:31:00,
2013-08-24 06:36:00,54.1,53.0,30.25,SW,236,0.0,0.0,96,0.00,,---,0.00,VWS V14.01,2013-08-24 10:36:00,
2013-08-24 06:41:00,54.0,52.9,30.25,SW,236,0.0,1.0,96,0.00,,---,0.00,VWS V14.01,2013-08-24 10:41:00,
2013-08-24 06:46:00,54.1,53.3,30.26,SW,236,0.0,1.0,97,0.00,,---,0.00,VWS V14.01,2013-08-24 10:46:00,
2013-08-24 06:51:00,54.3,53.5,30.26,SW,236,0.0,1.0,97,0.00,,---,0.00,VWS V14.01,2013-08-24 10:51:00,
2013-08-24 06:56:00,54.4,53.6,30.26,WSW,238,0.0,1.0,97,0.00,,---,0.00,VWS V14.01,2013-08-24 10:56:00,
2013-08-24 07:00:00,54.5,53.7,30.26,WSW,238,0.0,1.0,97,0.00,,---,0.00,VWS V14.01,2013-08-24 11:00:00,
2013-08-24 07:01:00,54.5,53.7,30.26,WSW,238,0.0,1.0,97,0.00,,---,0.00,VWS V14.01,2013-08-24 11:01:00,
2013-08-24 07:06:00,54.7,53.9,30.26,WSW,247,1.0,1.0,97,0.00,,---,0.00,VWS V14.01,2013-08-24 11:06:00,
2013-08-24 07:11:00,55.0,54.2,30.26,West,274,0.0,1.0,97,0.00,,---,0.00,VWS V14.01,2013-08-24 11:11:00,
2013-08-24 07:16:00,55.2,54.4,30.26,West,274,0.0,1.0,97,0.00,,---,0.00,VWS V14.01,2013-08-24 11:16:00,
2013-08-24 07:21:00,55.4,54.3,30.27,West,274,0.0,1.0,96,0.00,,---,0.00,VWS V14.01,2013-08-24 11:21:00,
2013-08-24 07:26:00,55.5,54.1,30.27,West,274,0.0,1.0,95,0.00,,---,0.00,VWS V14.01,2013-08-24 11:26:00,
2013-08-24 07:30:00,56.2,53.9,30.27,West,276,0.0,1.0,92,0.00,,---,0.00,VWS V14.01,2013-08-24 11:30:00,
2013-08-24 07:31:00,56.2,53.9,30.27,West,276,0.0,1.0,92,0.00,,---,0.00,VWS V14.01,2013-08-24 11:31:00,
2013-08-24 07:36:00,57.2,54.9,30.27,North,359,0.0,1.0,92,0.00,,---,0.00,VWS V14.01,2013-08-24 11:36:00,
2013-08-24 07:41:00,58.4,53.6,30.27,North,360,0.0,1.0,84,0.00,,---,0.00,VWS V14.01,2013-08-24 11:41:00,
2013-08-24 07:46:00,59.4,53.6,30.27,NE,36,0.0,1.0,81,0.00,,---,0.00,VWS V14.01,2013-08-24 11:46:00,
2013-08-24 07:51:00,60.1,53.2,30.27,NE,36,1.0,1.0,78,0.00,,---,0.00,VWS V14.01,2013-08-24 11:51:00,
2013-08-24 07:55:00,60.8,53.2,30.27,ENE,58,0.0,1.0,76,0.00,,---,0.00,VWS V14.01,2013-08-24 11:55:00,
2013-08-24 08:00:00,61.4,53.8,30.28,ENE,65,0.0,1.0,76,0.00,,---,0.00,VWS V14.01,2013-08-24 12:00:00,
2013-08-24 08:05:00,61.8,53.4,30.28,NE,44,0.0,0.0,74,0.00,,---,0.00,VWS V14.01,2013-08-24 12:05:00,
2013-08-24 08:10:00,62.3,53.5,30.29,NE,44,0.0,0.0,73,0.00,,---,0.00,VWS V14.01,2013-08-24 12:10:00,
2013-08-24 08:15:00,62.6,53.5,30.29,ENE,65,1.0,2.0,72,0.00,,---,0.00,VWS V14.01,2013-08-24 12:15:00,
2013-08-24 08:20:00,62.9,53.0,30.29,ENE,62,1.0,2.0,70,0.00,,---,0.00,VWS V14.01,2013-08-24 12:20:00,
2013-08-24 08:25:00,63.2,53.3,30.29,NE,53,1.0,2.0,70,0.00,,---,0.00,VWS V14.01,2013-08-24 12:25:00,
2013-08-24 08:30:00,63.5,53.2,30.29,NE,51,1.0,2.0,69,0.00,,---,0.00,VWS V14.01,2013-08-24 12:30:00,
2013-08-24 08:35:00,63.8,53.8,30.29,NNE,27,0.0,2.0,70,0.00,,---,0.00,VWS V14.01,2013-08-24 12:35:00,
2013-08-24 08:40:00,64.0,53.2,30.29,NE,47,1.0,2.0,68,0.00,,---,0.00,VWS V14.01,2013-08-24 12:40:00,
2013-08-24 08:45:00,64.2,53.4,30.29,NE,50,1.0,2.0,68,0.00,,---,0.00,VWS V14.01,2013-08-24 12:45:00,
2013-08-24 08:50:00,64.3,53.1,30.29,NNE,25,2.0,3.0,67,0.00,,---,0.00,VWS V14.01,2013-08-24 12:50:00,
2013-08-24 08:55:00,64.5,53.3,30.30,NNE,30,1.0,3.0,67,0.00,,---,0.00,VWS V14.01,2013-08-24 12:55:00,
2013-08-24 09:00:00,64.7,53.5,30.29,NNE,18,2.0,3.0,67,0.00,,---,0.00,VWS V14.01,2013-08-24 13:00:00,
2013-08-24 09:05:00,64.9,53.7,30.29,NE,38,1.0,2.0,67,0.00,,---,0.00,VWS V14.01,2013-08-24 13:05:00,
2013-08-24 09:10:00,65.0,53.4,30.30,NNE,25,1.0,3.0,66,0.00,,---,0.00,VWS V14.01,2013-08-24 13:10:00,
2013-08-24 09:15:00,65.2,54.4,30.30,NNE,30,1.0,3.0,68,0.00,,---,0.00,VWS V14.01,2013-08-24 13:15:00,
2013-08-24 09:20:00,65.5,54.3,30.30,NNE,16,0.0,3.0,67,0.00,,---,0.00,VWS V14.01,2013-08-24 13:20:00,
2013-08-24 09:25:00,65.7,54.5,30.30,NE,51,0.0,3.0,67,0.00,,---,0.00,VWS V14.01,2013-08-24 13:25:00,
2013-08-24 09:30:00,65.8,54.1,30.30,ENE,71,1.0,3.0,66,0.00,,---,0.00,VWS V14.01,2013-08-24 13:30:00,
2013-08-24 09:35:00,65.9,53.8,30.30,ENE,68,1.0,1.0,65,0.00,,---,0.00,VWS V14.01,2013-08-24 13:35:00,
2013-08-24 09:40:00,66.1,54.0,30.30,NE,55,0.0,2.0,65,0.00,,---,0.00,VWS V14.01,2013-08-24 13:40:00,
2013-08-24 09:45:00,66.3,54.2,30.30,NE,55,1.0,2.0,65,0.00,,---,0.00,VWS V14.01,2013-08-24 13:45:00,
2013-08-24 09:50:00,66.5,53.5,30.30,ENE,60,1.0,2.0,63,0.00,,---,0.00,VWS V14.01,2013-08-24 13:50:00,
2013-08-24 09:55:00,66.7,53.7,30.30,ENE,70,0.0,2.0,63,0.00,,---,0.00,VWS V14.01,2013-08-24 13:55:00,
2013-08-24 10:00:00,66.9,53.9,30.30,ENE,70,1.0,2.0,63,0.00,,---,0.00,VWS V14.01,2013-08-24 14:00:00,
2013-08-24 10:05:00,67.2,53.8,30.30,ENE,58,0.0,2.0,62,0.00,,---,0.00,VWS V14.01,2013-08-24 14:05:00,
2013-08-24 10:10:00,67.4,53.5,30.31,NE,56,1.0,2.0,61,0.00,,---,0.00,VWS V14.01,2013-08-24 14:10:00,
2013-08-24 10:15:00,67.6,54.1,30.31,NNE,28,0.0,3.0,62,0.00,,---,0.00,VWS V14.01,2013-08-24 14:15:00,
2013-08-24 10:20:00,67.9,54.0,30.31,ENE,60,1.0,3.0,61,0.00,,---,0.00,VWS V14.01,2013-08-24 14:20:00,
2013-08-24 10:25:00,68.3,53.9,30.31,ENE,65,0.0,3.0,60,0.00,,---,0.00,VWS V14.01,2013-08-24 14:25:00,
2013-08-24 10:30:00,68.5,54.1,30.31,NE,46,1.0,3.0,60,0.00,,---,0.00,VWS V14.01,2013-08-24 14:30:00,
2013-08-24 10:35:00,68.7,54.7,30.31,ENE,58,1.0,2.0,61,0.00,,---,0.00,VWS V14.01,2013-08-24 14:35:00,
2013-08-24 10:40:00,69.0,53.2,30.31,NE,49,0.0,2.0,57,0.00,,---,0.00,VWS V14.01,2013-08-24 14:40:00,
2013-08-24 10:45:00,69.2,54.7,30.31,ESE,117,0.0,2.0,60,0.00,,---,0.00,VWS V14.01,2013-08-24 14:45:00,
2013-08-24 10:50:00,69.7,53.8,30.30,ESE,121,0.0,2.0,57,0.00,,---,0.00,VWS V14.01,2013-08-24 14:50:00,
2013-08-24 10:55:00,70.2,54.3,30.30,ESE,122,0.0,2.0,57,0.00,,---,0.00,VWS V14.01,2013-08-24 14:55:00,
2013-08-24 11:00:00,70.5,53.6,30.31,East,84,0.0,2.0,55,0.00,,---,0.00,VWS V14.01,2013-08-24 15:00:00,
2013-08-24 11:05:00,70.7,52.8,30.31,NE,51,0.0,2.0,53,0.00,,---,0.00,VWS V14.01,2013-08-24 15:05:00,
2013-08-24 11:10:00,71.1,54.1,30.31,NE,51,2.0,2.0,55,0.00,,---,0.00,VWS V14.01,2013-08-24 15:10:00,
2013-08-24 11:15:00,71.3,53.3,30.31,NE,49,1.0,2.0,53,0.00,,---,0.00,VWS V14.01,2013-08-24 15:15:00,
2013-08-24 11:20:00,71.3,52.8,30.31,ENE,70,0.0,2.0,52,0.00,,---,0.00,VWS V14.01,2013-08-24 15:20:00,
2013-08-24 11:25:00,71.5,52.4,30.31,NNE,28,0.0,2.0,51,0.00,,---,0.00,VWS V14.01,2013-08-24 15:25:00,
2013-08-24 11:30:00,71.8,52.7,30.31,SE,139,1.0,2.0,51,0.00,,---,0.00,VWS V14.01,2013-08-24 15:30:00,
2013-08-24 11:35:00,72.4,52.7,30.31,West,269,1.0,2.0,50,0.00,,---,0.00,VWS V14.01,2013-08-24 15:35:00,
2013-08-24 11:40:00,72.5,52.8,30.31,ENE,77,0.0,2.0,50,0.00,,---,0.00,VWS V14.01,2013-08-24 15:40:00,
2013-08-24 11:45:00,72.9,53.7,30.30,SE,145,0.0,2.0,51,0.00,,---,0.00,VWS V14.01,2013-08-24 15:45:00,
2013-08-24 11:50:00,73.3,52.5,30.30,ENE,72,0.0,2.0,48,0.00,,---,0.00,VWS V14.01,2013-08-24 15:50:00,
2013-08-24 11:55:00,73.7,52.8,30.30,ENE,70,1.0,2.0,48,0.00,,---,0.00,VWS V14.01,2013-08-24 15:55:00,
2013-08-24 12:00:00,73.8,52.9,30.30,NE,51,2.0,2.0,48,0.00,,---,0.00,VWS V14.01,2013-08-24 16:00:00,
2013-08-24 12:05:00,74.2,52.7,30.30,East,82,0.0,1.0,47,0.00,,---,0.00,VWS V14.01,2013-08-24 16:05:00,
2013-08-24 12:10:00,74.6,53.6,30.31,East,85,1.0,2.0,48,0.00,,---,0.00,VWS V14.01,2013-08-24 16:10:00,
2013-08-24 12:15:00,74.4,53.5,30.30,ENE,62,0.0,2.0,48,0.00,,---,0.00,VWS V14.01,2013-08-24 16:15:00,
2013-08-24 12:20:00,74.6,53.6,30.30,ENE,75,0.0,2.0,48,0.00,,---,0.00,VWS V14.01,2013-08-24 16:20:00,
2013-08-24 12:25:00,74.7,52.6,30.30,NE,41,0.0,2.0,46,0.00,,---,0.00,VWS V14.01,2013-08-24 16:25:00,
2013-08-24 12:30:00,74.8,53.2,30.30,ENE,70,1.0,2.0,47,0.00,,---,0.00,VWS V14.01,2013-08-24 16:30:00,
2013-08-24 12:35:00,74.9,53.3,30.30,North,360,0.0,2.0,47,0.00,,---,0.00,VWS V14.01,2013-08-24 16:35:00,
2013-08-24 12:40:00,75.2,54.2,30.30,NE,37,0.0,2.0,48,0.00,,---,0.00,VWS V14.01,2013-08-24 16:40:00,
2013-08-24 12:45:00,75.7,52.9,30.30,ENE,75,0.0,2.0,45,0.00,,---,0.00,VWS V14.01,2013-08-24 16:45:00,
2013-08-24 12:50:00,75.9,53.1,30.30,NNE,30,1.0,3.0,45,0.00,,---,0.00,VWS V14.01,2013-08-24 16:50:00,
2013-08-24 12:55:00,75.7,52.9,30.30,NNE,32,0.0,3.0,45,0.00,,---,0.00,VWS V14.01,2013-08-24 16:55:00,
2013-08-24 13:00:00,76.1,53.2,30.30,NNW,330,0.0,3.0,45,0.00,,---,0.00,VWS V14.01,2013-08-24 17:00:00,
2013-08-24 13:05:00,76.4,52.9,30.30,East,80,1.0,2.0,44,0.00,,---,0.00,VWS V14.01,2013-08-24 17:05:00,
2013-08-24 13:10:00,76.5,53.0,30.30,SSE,148,0.0,2.0,44,0.00,,---,0.00,VWS V14.01,2013-08-24 17:10:00,
2013-08-24 13:15:00,77.0,53.4,30.29,East,80,1.0,2.0,44,0.00,,---,0.00,VWS V14.01,2013-08-24 17:15:00,
2013-08-24 13:20:00,77.1,52.9,30.30,ENE,70,0.0,2.0,43,0.00,,---,0.00,VWS V14.01,2013-08-24 17:20:00,
2013-08-24 13:25:00,77.5,52.0,30.29,West,278,0.0,2.0,41,0.00,,---,0.00,VWS V14.01,2013-08-24 17:25:00,
2013-08-24 13:30:00,78.0,52.4,30.29,SSE,166,2.0,3.0,41,0.00,,---,0.00,VWS V14.01,2013-08-24 17:30:00,
2013-08-24 13:35:00,78.3,52.7,30.29,NNE,18,2.0,3.0,41,0.00,,---,0.00,VWS V14.01,2013-08-24 17:35:00,
2013-08-24 13:40:00,77.6,52.7,30.30,NNE,27,1.0,4.0,42,0.00,,---,0.00,VWS V14.01,2013-08-24 17:40:00,
2013-08-24 13:45:00,77.0,51.5,30.30,NNW,327,3.0,4.0,41,0.00,,---,0.00,VWS V14.01,2013-08-24 17:45:00,
2013-08-24 13:50:00,76.9,53.3,30.30,North,9,1.0,4.0,44,0.00,,---,0.00,VWS V14.01,2013-08-24 17:50:00,
2013-08-24 13:55:00,77.2,53.0,30.30,NNE,27,1.0,4.0,43,0.00,,---,0.00,VWS V14.01,2013-08-24 17:55:00,
2013-08-24 14:00:00,77.1,52.3,30.30,ENE,62,1.0,4.0,42,0.00,,---,0.00,VWS V14.01,2013-08-24 18:00:00,
2013-08-24 14:05:00,77.5,52.6,30.30,NE,39,2.0,2.0,42,0.00,,---,0.00,VWS V14.01,2013-08-24 18:05:00,
2013-08-24 14:10:00,77.9,51.7,30.30,NNW,347,1.0,2.0,40,0.00,,---,0.00,VWS V14.01,2013-08-24 18:10:00,
2013-08-24 14:15:00,77.0,50.9,30.29,WNW,294,2.0,3.0,40,0.00,,---,0.00,VWS V14.01,2013-08-24 18:15:00,
2013-08-24 14:20:00,76.8,51.3,30.29,NE,43,1.0,3.0,41,0.00,,---,0.00,VWS V14.01,2013-08-24 18:20:00,
2013-08-24 14:25:00,76.9,51.4,30.30,ENE,63,1.0,3.0,41,0.00,,---,0.00,VWS V14.01,2013-08-24 18:25:00,
2013-08-24 14:30:00,77.1,50.9,30.30,ENE,67,0.0,3.0,40,0.00,,---,0.00,VWS V14.01,2013-08-24 18:30:00,
2013-08-24 14:35:00,77.8,52.2,30.29,NNE,22,1.0,1.0,41,0.00,,---,0.00,VWS V14.01,2013-08-24 18:35:00,
2013-08-24 14:40:00,78.3,52.7,30.29,NNE,25,0.0,2.0,41,0.00,,---,0.00,VWS V14.01,2013-08-24 18:40:00,
2013-08-24 14:45:00,78.7,53.0,30.29,North,353,1.0,2.0,41,0.00,,---,0.00,VWS V14.01,2013-08-24 18:45:00,
2013-08-24 14:50:00,78.5,52.9,30.29,NNE,25,0.0,3.0,41,0.00,,---,0.00,VWS V14.01,2013-08-24 18:50:00,
2013-08-24 14:55:00,78.5,52.9,30.29,NE,44,2.0,3.0,41,0.00,,---,0.00,VWS V14.01,2013-08-24 18:55:00,
2013-08-24 15:00:00,78.3,52.0,30.29,North,11,4.0,4.0,40,0.00,,---,0.00,VWS V14.01,2013-08-24 19:00:00,
2013-08-24 15:05:00,78.2,51.9,30.29,NNE,18,0.0,1.0,40,0.00,,---,0.00,VWS V14.01,2013-08-24 19:05:00,
2013-08-24 15:10:00,78.6,51.6,30.29,WNW,283,0.0,3.0,39,0.00,,---,0.00,VWS V14.01,2013-08-24 19:10:00,
2013-08-24 15:15:00,78.1,51.8,30.29,WSW,250,1.0,3.0,40,0.00,,---,0.00,VWS V14.01,2013-08-24 19:15:00,
2013-08-24 15:20:00,78.6,53.0,30.29,NNE,33,1.0,3.0,41,0.00,,---,0.00,VWS V14.01,2013-08-24 19:20:00,
2013-08-24 15:25:00,78.9,53.2,30.29,NNE,23,1.0,3.0,41,0.00,,---,0.00,VWS V14.01,2013-08-24 19:25:00,
2013-08-24 15:30:00,78.7,52.4,30.29,North,356,1.0,3.0,40,0.00,,---,0.00,VWS V14.01,2013-08-24 19:30:00,
2013-08-24 15:35:00,78.4,50.7,30.29,WNW,283,2.0,3.0,38,0.00,,---,0.00,VWS V14.01,2013-08-24 19:35:00,
2013-08-24 15:40:00,78.1,52.5,30.29,North,8,1.0,3.0,41,0.00,,---,0.00,VWS V14.01,2013-08-24 19:40:00,
2013-08-24 15:45:00,78.5,52.2,30.29,North,9,1.0,3.0,40,0.00,,---,0.00,VWS V14.01,2013-08-24 19:45:00,
2013-08-24 15:50:00,78.9,51.9,30.29,NE,44,1.0,3.0,39,0.00,,---,0.00,VWS V14.01,2013-08-24 19:50:00,
2013-08-24 15:55:00,79.1,52.7,30.29,ENE,57,0.0,3.0,40,0.00,,---,0.00,VWS V14.01,2013-08-24 19:55:00,
2013-08-24 16:00:00,79.0,51.2,30.29,NNE,23,0.0,3.0,38,0.00,,---,0.00,VWS V14.01,2013-08-24 20:00:00,
2013-08-24 16:05:00,78.9,51.9,30.29,NNE,23,0.0,1.0,39,0.00,,---,0.00,VWS V14.01,2013-08-24 20:05:00,
2013-08-24 16:10:00,78.9,51.9,30.29,North,8,0.0,2.0,39,0.00,,---,0.00,VWS V14.01,2013-08-24 20:10:00,
2013-08-24 16:15:00,78.9,51.9,30.29,NNE,28,0.0,2.0,39,0.00,,---,0.00,VWS V14.01,2013-08-24 20:15:00,
2013-08-24 16:20:00,78.8,51.1,30.29,NE,46,0.0,2.0,38,0.00,,---,0.00,VWS V14.01,2013-08-24 20:20:00,
2013-08-24 16:25:00,78.5,52.9,30.29,NNW,339,0.0,2.0,41,0.00,,---,0.00,VWS V14.01,2013-08-24 20:25:00,
2013-08-24 16:30:00,78.1,53.8,30.29,North,356,0.0,2.0,43,0.00,,---,0.00,VWS V14.01,2013-08-24 20:30:00,
2013-08-24 16:35:00,77.7,52.2,30.29,ENE,69,0.0,2.0,41,0.00,,---,0.00,VWS V14.01,2013-08-24 20:35:00,
2013-08-24 16:40:00,77.7,52.8,30.29,ENE,60,1.0,2.0,42,0.00,,---,0.00,VWS V14.01,2013-08-24 20:40:00,
2013-08-24 16:45:00,77.3,51.8,30.29,ENE,60,0.0,2.0,41,0.00,,---,0.00,VWS V14.01,2013-08-24 20:45:00,
2013-08-24 16:50:00,77.3,53.1,30.29,WNW,295,0.0,2.0,43,0.00,,---,0.00,VWS V14.01,2013-08-24 20:50:00,
2013-08-24 16:55:00,77.2,52.4,30.29,NNW,328,0.0,2.0,42,0.00,,---,0.00,VWS V14.01,2013-08-24 20:55:00,
2013-08-24 17:00:00,76.8,52.0,30.29,NNW,345,0.0,2.0,42,0.00,,---,0.00,VWS V14.01,2013-08-24 21:00:00,
2013-08-24 17:05:00,76.5,51.7,30.29,NE,47,0.0,1.0,42,0.00,,---,0.00,VWS V14.01,2013-08-24 21:05:00,
2013-08-24 17:10:00,76.4,52.3,30.29,WSW,245,0.0,1.0,43,0.00,,---,0.00,VWS V14.01,2013-08-24 21:10:00,
2013-08-24 17:15:00,76.5,51.7,30.29,WSW,245,0.0,1.0,42,0.00,,---,0.00,VWS V14.01,2013-08-24 21:15:00,
2013-08-24 17:20:00,76.5,52.4,30.29,WSW,246,0.0,1.0,43,0.00,,---,0.00,VWS V14.01,2013-08-24 21:20:00,
2013-08-24 17:25:00,76.4,53.5,30.29,North,4,1.0,2.0,45,0.00,,---,0.00,VWS V14.01,2013-08-24 21:25:00,
2013-08-24 17:30:00,76.3,52.8,30.29,NW,321,0.0,2.0,44,0.00,,---,0.00,VWS V14.01,2013-08-24 21:30:00,
2013-08-24 17:35:00,76.2,52.1,30.29,NNW,336,1.0,2.0,43,0.00,,---,0.00,VWS V14.01,2013-08-24 21:35:00,
2013-08-24 17:40:00,76.1,53.8,30.29,NNW,335,0.0,2.0,46,0.00,,---,0.00,VWS V14.01,2013-08-24 21:40:00,
2013-08-24 17:45:00,75.9,54.2,30.29,NNW,340,0.0,2.0,47,0.00,,---,0.00,VWS V14.01,2013-08-24 21:45:00,
2013-08-24 17:50:00,75.7,55.8,30.29,NNW,340,1.0,2.0,50,0.00,,---,0.00,VWS V14.01,2013-08-24 21:50:00,
2013-08-24 17:55:00,75.4,54.9,30.29,NNW,340,0.0,2.0,49,0.00,,---,0.00,VWS V14.01,2013-08-24 21:55:00,
2013-08-24 18:00:00,75.1,55.8,30.29,NNW,340,1.0,2.0,51,0.00,,---,0.00,VWS V14.01,2013-08-24 22:00:00,
2013-08-24 18:05:00,75.0,55.7,30.29,NNW,331,1.0,1.0,51,0.00,,---,0.00,VWS V14.01,2013-08-24 22:05:00,
2013-08-24 18:10:00,74.9,57.7,30.29,NNW,332,0.0,1.0,55,0.00,,---,0.00,VWS V14.01,2013-08-24 22:10:00,
2013-08-24 18:15:00,74.5,57.8,30.29,NNW,332,1.0,1.0,56,0.00,,---,0.00,VWS V14.01,2013-08-24 22:15:00,
2013-08-24 18:20:00,74.2,54.4,30.29,NNW,332,0.0,1.0,50,0.00,,---,0.00,VWS V14.01,2013-08-24 22:20:00,
2013-08-24 18:25:00,74.1,56.9,30.29,NNW,328,1.0,1.0,55,0.00,,---,0.00,VWS V14.01,2013-08-24 22:25:00,
2013-08-24 18:30:00,73.7,59.0,30.29,NNW,328,1.0,1.0,60,0.00,,---,0.00,VWS V14.01,2013-08-24 22:30:00,
2013-08-24 18:35:00,73.5,59.2,30.29,WNW,283,1.0,1.0,61,0.00,,---,0.00,VWS V14.01,2013-08-24 22:35:00,
2013-08-24 18:40:00,73.2,57.5,30.29,West,280,1.0,2.0,58,0.00,,---,0.00,VWS V14.01,2013-08-24 22:40:00,
2013-08-24 18:45:00,72.8,55.7,30.29,NW,323,1.0,2.0,55,0.00,,---,0.00,VWS V14.01,2013-08-24 22:45:00,
2013-08-24 18:50:00,72.8,57.7,30.29,NW,316,1.0,2.0,59,0.00,,---,0.00,VWS V14.01,2013-08-24 22:50:00,
2013-08-24 18:55:00,72.4,57.3,30.29,NW,316,0.0,2.0,59,0.00,,---,0.00,VWS V14.01,2013-08-24 22:55:00,
2013-08-24 19:00:00,71.9,58.2,30.29,NW,316,0.0,2.0,62,0.00,,---,0.00,VWS V14.01,2013-08-24 23:00:00,
2013-08-24 19:05:00,71.3,58.5,30.29,NW,316,0.0,0.0,64,0.00,,---,0.00,VWS V14.01,2013-08-24 23:05:00,
2013-08-24 19:10:00,70.9,59.4,30.29,NW,316,0.0,0.0,67,0.00,,---,0.00,VWS V14.01,2013-08-24 23:10:00,
2013-08-24 19:15:00,70.5,59.4,30.29,NW,316,0.0,0.0,68,0.00,,---,0.00,VWS V14.01,2013-08-24 23:15:00,
2013-08-24 19:20:00,70.0,59.0,30.30,NW,316,0.0,0.0,68,0.00,,---,0.00,VWS V14.01,2013-08-24 23:20:00,
2013-08-24 19:25:00,69.6,58.6,30.30,NW,316,0.0,0.0,68,0.00,,---,0.00,VWS V14.01,2013-08-24 23:25:00,
2013-08-24 19:30:00,69.2,58.6,30.30,NW,316,0.0,0.0,69,0.00,,---,0.00,VWS V14.01,2013-08-24 23:30:00,
2013-08-24 19:35:00,68.7,58.5,30.30,NW,316,0.0,0.0,70,0.00,,---,0.00,VWS V14.01,2013-08-24 23:35:00,
2013-08-24 19:40:00,68.3,58.2,30.30,NW,316,0.0,0.0,70,0.00,,---,0.00,VWS V14.01,2013-08-24 23:40:00,
2013-08-24 19:45:00,67.9,58.9,30.31,NW,316,0.0,0.0,73,0.00,,---,0.00,VWS V14.01,2013-08-24 23:45:00,
2013-08-24 19:50:00,67.3,58.7,30.31,NW,316,0.0,0.0,74,0.00,,---,0.00,VWS V14.01,2013-08-24 23:50:00,
2013-08-24 19:55:00,66.8,57.9,30.31,NW,316,0.0,0.0,73,0.00,,---,0.00,VWS V14.01,2013-08-24 23:55:00,
2013-08-24 20:00:00,66.4,58.2,30.31,NW,316,0.0,0.0,75,0.00,,---,0.00,VWS V14.01,2013-08-25 00:00:00,
2013-08-24 20:05:00,66.1,58.3,30.31,NW,316,0.0,0.0,76,0.00,,---,0.00,VWS V14.01,2013-08-25 00:05:00,
2013-08-24 20:10:00,65.8,58.4,30.32,NW,316,0.0,0.0,77,0.00,,---,0.00,VWS V14.01,2013-08-25 00:10:00,
2013-08-24 20:15:00,65.4,58.4,30.32,NW,316,0.0,0.0,78,0.00,,---,0.00,VWS V14.01,2013-08-25 00:15:00,
2013-08-24 20:20:00,65.0,58.0,30.32,NW,316,0.0,0.0,78,0.00,,---,0.00,VWS V14.01,2013-08-25 00:20:00,
2013-08-24 20:25:00,64.7,58.0,30.32,NW,316,0.0,0.0,79,0.00,,---,0.00,VWS V14.01,2013-08-25 00:25:00,
2013-08-24 20:30:00,64.3,57.7,30.32,NW,316,0.0,0.0,79,0.00,,---,0.00,VWS V14.01,2013-08-25 00:30:00,
2013-08-24 20:35:00,64.0,57.7,30.33,NW,316,0.0,0.0,80,0.00,,---,0.00,VWS V14.01,2013-08-25 00:35:00,
2013-08-24 20:40:00,63.7,57.8,30.33,NW,316,0.0,0.0,81,0.00,,---,0.00,VWS V14.01,2013-08-25 00:40:00,
2013-08-24 20:45:00,63.4,57.8,30.33,NW,316,0.0,0.0,82,0.00,,---,0.00,VWS V14.01,2013-08-25 00:45:00,
2013-08-24 20:50:00,63.2,58.0,30.33,NW,316,0.0,0.0,83,0.00,,---,0.00,VWS V14.01,2013-08-25 00:50:00,
2013-08-24 20:55:00,62.9,57.7,30.34,NW,316,0.0,0.0,83,0.00,,---,0.00,VWS V14.01,2013-08-25 00:55:00,
2013-08-24 21:00:00,62.7,57.8,30.34,NW,316,0.0,0.0,84,0.00,,---,0.00,VWS V14.01,2013-08-25 01:00:00,
2013-08-24 21:05:00,62.5,57.6,30.34,NW,316,0.0,0.0,84,0.00,,---,0.00,VWS V14.01,2013-08-25 01:05:00,
2013-08-24 21:10:00,62.4,57.8,30.34,NW,316,0.0,0.0,85,0.00,,---,0.00,VWS V14.01,2013-08-25 01:10:00,
2013-08-24 21:15:00,62.2,57.6,30.34,NW,316,0.0,0.0,85,0.00,,---,0.00,VWS V14.01,2013-08-25 01:15:00,
2013-08-24 21:20:00,62.0,57.8,30.34,NW,316,0.0,0.0,86,0.00,,---,0.00,VWS V14.01,2013-08-25 01:20:00,
2013-08-24 21:25:00,61.8,57.6,30.34,NW,316,0.0,0.0,86,0.00,,---,0.00,VWS V14.01,2013-08-25 01:25:00,
2013-08-24 21:30:00,61.7,57.8,30.34,NW,316,0.0,0.0,87,0.00,,---,0.00,VWS V14.01,2013-08-25 01:30:00,
2013-08-24 21:35:00,61.5,57.6,30.34,NW,316,0.0,0.0,87,0.00,,---,0.00,VWS V14.01,2013-08-25 01:35:00,
2013-08-24 21:40:00,61.4,57.5,30.34,NW,316,0.0,0.0,87,0.00,,---,0.00,VWS V14.01,2013-08-25 01:40:00,
2013-08-24 21:45:00,61.2,57.3,30.34,NW,316,0.0,0.0,87,0.00,,---,0.00,VWS V14.01,2013-08-25 01:45:00,
2013-08-24 21:50:00,61.1,57.5,30.35,NW,316,0.0,0.0,88,0.00,,---,0.00,VWS V14.01,2013-08-25 01:50:00,
2013-08-24 21:54:00,60.9,57.3,30.35,NW,316,0.0,0.0,88,0.00,,---,0.00,VWS V14.01,2013-08-25 01:54:00,
2013-08-24 21:59:00,60.8,57.5,30.35,NW,316,0.0,0.0,89,0.00,,---,0.00,VWS V14.01,2013-08-25 01:59:00,
2013-08-24 22:00:00,60.7,57.4,30.35,NW,316,0.0,0.0,89,0.00,,---,0.00,VWS V14.01,2013-08-25 02:00:00,
2013-08-24 22:04:00,60.6,57.3,30.35,NW,316,0.0,0.0,89,0.00,,---,0.00,VWS V14.01,2013-08-25 02:04:00,
2013-08-24 22:09:00,60.4,57.2,30.35,NW,316,0.0,0.0,89,0.00,,---,0.00,VWS V14.01,2013-08-25 02:09:00,
2013-08-24 22:14:00,60.3,57.4,30.35,NW,316,0.0,0.0,90,0.00,,---,0.00,VWS V14.01,2013-08-25 02:14:00,
2013-08-24 22:19:00,60.1,57.2,30.35,NW,316,0.0,0.0,90,0.00,,---,0.00,VWS V14.01,2013-08-25 02:19:00,
2013-08-24 22:24:00,59.9,57.0,30.35,NW,316,0.0,0.0,90,0.00,,---,0.00,VWS V14.01,2013-08-25 02:24:00,
2013-08-24 22:29:00,59.7,56.8,30.35,NW,316,0.0,0.0,90,0.00,,---,0.00,VWS V14.01,2013-08-25 02:29:00,
2013-08-24 22:30:00,59.7,57.1,30.35,NW,316,0.0,0.0,91,0.00,,---,0.00,VWS V14.01,2013-08-25 02:30:00,
2013-08-24 22:34:00,59.5,56.9,30.35,NW,316,0.0,0.0,91,0.00,,---,0.00,VWS V14.01,2013-08-25 02:34:00,
2013-08-24 22:39:00,59.4,56.8,30.35,NW,316,0.0,0.0,91,0.00,,---,0.00,VWS V14.01,2013-08-25 02:39:00,
2013-08-24 22:44:00,59.3,56.7,30.35,NW,316,0.0,0.0,91,0.00,,---,0.00,VWS V14.01,2013-08-25 02:44:00,
2013-08-24 22:49:00,59.2,56.9,30.35,NW,316,0.0,0.0,92,0.00,,---,0.00,VWS V14.01,2013-08-25 02:49:00,
2013-08-24 22:54:00,59.0,56.7,30.35,NW,316,0.0,0.0,92,0.00,,---,0.00,VWS V14.01,2013-08-25 02:54:00,
2013-08-24 22:59:00,58.8,56.5,30.35,NW,316,0.0,0.0,92,0.00,,---,0.00,VWS V14.01,2013-08-25 02:59:00,
2013-08-24 23:00:00,58.7,56.4,30.36,NW,316,0.0,0.0,92,0.00,,---,0.00,VWS V14.01,2013-08-25 03:00:00,
2013-08-24 23:04:00,58.6,56.3,30.35,NW,316,0.0,0.0,92,0.00,,---,0.00,VWS V14.01,2013-08-25 03:04:00,
2013-08-24 23:09:00,58.5,56.2,30.35,NW,316,0.0,0.0,92,0.00,,---,0.00,VWS V14.01,2013-08-25 03:09:00,
2013-08-24 23:14:00,58.4,56.4,30.36,NW,316,0.0,0.0,93,0.00,,---,0.00,VWS V14.01,2013-08-25 03:14:00,
2013-08-24 23:19:00,58.3,56.3,30.36,NW,316,0.0,0.0,93,0.00,,---,0.00,VWS V14.01,2013-08-25 03:19:00,
2013-08-24 23:24:00,58.3,56.6,30.36,NW,316,0.0,0.0,94,0.00,,---,0.00,VWS V14.01,2013-08-25 03:24:00,
2013-08-24 23:29:00,58.3,56.6,30.36,NW,316,0.0,0.0,94,0.00,,---,0.00,VWS V14.01,2013-08-25 03:29:00,
2013-08-24 23:30:00,58.2,56.5,30.36,NW,316,0.0,0.0,94,0.00,,---,0.00,VWS V14.01,2013-08-25 03:30:00,
2013-08-24 23:34:00,58.1,56.4,30.36,NW,316,0.0,0.0,94,0.00,,---,0.00,VWS V14.01,2013-08-25 03:34:00,
2013-08-24 23:39:00,57.9,56.2,30.37,NW,316,0.0,0.0,94,0.00,,---,0.00,VWS V14.01,2013-08-25 03:39:00,
2013-08-24 23:44:00,57.7,56.0,30.37,NW,316,0.0,0.0,94,0.00,,---,0.00,VWS V14.01,2013-08-25 03:44:00,
2013-08-24 23:49:00,57.6,55.9,30.36,NW,316,0.0,0.0,94,0.00,,---,0.00,VWS V14.01,2013-08-25 03:49:00,
2013-08-24 23:54:00,57.4,55.7,30.36,NW,316,0.0,0.0,94,0.00,,---,0.00,VWS V14.01,2013-08-25 03:54:00,
2013-08-24 23:59:00,57.3,55.6,30.36,NW,316,0.0,0.0,94,0.00,,---,0.00,VWS V14.01,2013-08-25 03:59:00,